Regional Weather Roundup
Issued by NWS

Home | Current Version | Previous Version | Graphics & Text | Print | Product List | Glossary On
Versions: 1 2 3 4 5 6 7 8 9 10 11 12 13 14 15 16 17 18 19 20 21 22 23 24 25 26 27 28 29 30 31 32 33 34 35 36 37 38 39 40 41 42 43 44 45 46 47 48 49 50
000
ASUS43 KOAX 171002
RWRNE

WEATHER ROUNDUP FOR NEBRASKA
NATIONAL WEATHER SERVICE OMAHA NE
400 AM CST TUE JAN 17 2017

NOTES: SATELLITE DATA IS BEING USED TO AUGMENT CLOUD COVER ABOVE
       12000 FEET.
       "FAIR" INDICATES FEW OR NO CLOUDS BELOW 12,000 FEET WITH NO
       SIGNIFICANT WEATHER AND/OR OBSTRUCTIONS TO VISIBILITY.

  * THESE STATIONS DO NOT REPORT WEATHER SUCH AS RAIN...SNOW OR FOG.

NEZ001>004-019>022-054>056-171100-
NEBRASKA PANHANDLE

CITY           SKY/WX    TMP DP  RH WIND       PRES   REMARKS
SCOTTSBLUFF    CLOUDY    18  12  77 NW8       30.07S WCI   8
ALLIANCE       CLOUDY    11   7  84 W8        30.05S WCI  -1
CHADRON        CLOUDY     7   3  84 SW8       30.06F WCI  -6
KIMBALL        CLOUDY    15  10  83 W7        30.06S WCI   5
SIDNEY         CLOUDY    15  10  80 NW7       30.07S WCI   5
$$

NEZ057>060-069>072-079>082-171100-
SOUTHWEST NEBRASKA

CITY           SKY/WX    TMP DP  RH WIND       PRES   REMARKS
NORTH PLATTE   CLOUDY    20  17  88 W5        30.06F WCI  13
IMPERIAL       CLOUDY    24  18  77 SW6       30.08F WCI  17
LEXINGTON      CLOUDY    26  21  83 W9        30.06S WCI  16
MCCOOK         CLEAR     26  23  88 W9        30.09F WCI  17
OGALLALA       CLOUDY    22  19  87 W5        30.08S WCI  16
$$

NEZ005>010-023>029-035>040-094-171100-
NORTH CENTRAL NEBRASKA

CITY           SKY/WX    TMP DP  RH WIND       PRES   REMARKS
VALENTINE      CLOUDY    13   9  84 SW8       30.05S WCI   2
AINSWORTH      CLOUDY    18  15  89 W8        30.04S WCI   8
BROKEN BOW     CLOUDY    23  17  78 NW9       30.04R WCI  13
O`NEILL        CLOUDY    19  16  88 NW7       30.04S WCI  10
ORD            CLOUDY    21  15  78 NW8       30.03F WCI  11
THEDFORD       CLOUDY    21  17  83 W7        30.05S WCI  13
$$

NEZ041-046>049-061>064-073>077-083>087-171100-
SOUTH CENTRAL NEBRASKA

CITY           SKY/WX    TMP DP  RH WIND       PRES   REMARKS
GRAND ISLAND   CLEAR     23  21  92 NW7         N/A  WCI  15
AURORA         CLEAR     25  22  89 NW3       30.04F
HASTINGS       CLOUDY    26  21  81 NW9       30.05S WCI  17
HEBRON         CLOUDY    30  26  84 NW5       30.04F WCI  25
HOLDREGE       CLOUDY    26  22  86 CALM      30.05F
KEARNEY *      CLOUDY    25  18  74 CALM      30.05F
YORK           CLEAR     27  23  86 MISG      30.04S
$$

NEZ011>018-030>034-042>045-171100-
NORTHEAST NEBRASKA

CITY           SKY/WX    TMP DP  RH WIND       PRES   REMARKS
NORFOLK        CLOUDY    19  14  81 NW13      30.02S WCI   6
ALBION         CLOUDY    19  15  85 NW3       30.03S FOG
BLAIR          CLOUDY    29  26  91 NW6       29.99F FOG     WCI  22
FREMONT        CLOUDY    27  24  87 NW16      30.03S WCI  15
TEKAMAH        CLOUDY    27  24  89 NW16      30.01S WCI  15
WAYNE          CLOUDY    18  14  84 CALM      30.03S
$$

NEZ050>053-065>068-078-088>093-171100-
SOUTHEAST NEBRASKA

CITY           SKY/WX    TMP DP  RH WIND       PRES   REMARKS
LINCOLN        CLOUDY    30  25  81 NW10      30.04S WCI  21
OMAHA EPPLEY   CLOUDY    30  26  85 NW13      30.01S WCI  20
BEATRICE       CLOUDY    32  31  94 NW7       30.02F WCI  26
FALLS CITY     CLOUDY    33  32  96 NW8       30.00F FOG     WCI  26
NEBRASKA CITY  CLOUDY    32  32 100 NW8       29.99F WCI  25
PLATTSMOUTH    CLOUDY    32  28  86 NW15G21   29.99F WCI  21
$$

NEZ044-045-051>053-067-171100-
OMAHA AREA

CITY           SKY/WX    TMP DP  RH WIND       PRES   REMARKS
OMAHA EPPLEY   CLOUDY    30  26  85 NW13      30.01S WCI  20
BLAIR          CLOUDY    29  26  91 NW6       29.99F FOG     WCI  22
FREMONT        CLOUDY    27  24  87 NW16      30.03S WCI  15
MILLARD        CLOUDY    32  28  85 NW13      30.01S WCI  22
OFFUTT AFB     CLOUDY    31  31  99 NW17      29.99F WCI  20
PLATTSMOUTH    CLOUDY    32  28  86 NW15G21   29.99F WCI  21
WAHOO          CLOUDY    28  24  85 NW14      30.02S WCI  17
$$




USA.gov is the U.S. government's official web portal to all federal, state and local government web resources and services.